DK8DX-13 Weather Reports


time (UTC)temp
C
wind
direction
speed
KPH
gust
KPH
rain 1hr
cm
rain 24hr
cm
rain mn
cm
humidity
%
barometer
mb
20260508184901 11 66 0.0 1.6 0.00 0.00 0.00 76 1020.6
20260508184451 11 75 0.0 3.2 0.00 0.00 0.00 75 1020.5
20260508184046 11 71 0.0 4.8 0.00 0.00 0.00 75 1020.5
20260508183641 11 71 0.0 4.8 0.00 0.00 0.00 75 1020.5
20260508183211 11 70 0.0 9.7 0.00 0.00 0.00 74 1020.5
20260508182731 11 70 0.0 12.9 0.00 0.00 0.00 74 1020.4
20260508182307 11 80 0.0 4.8 0.00 0.00 0.00 74 1020.4
20260508181843 11 78 0.0 9.7 0.00 0.00 0.00 75 1020.4
20260508181406 12 54 0.0 4.8 0.00 0.00 0.00 74 1020.4
20260508180941 12 68 0.0 6.4 0.00 0.00 0.00 73 1020.3
20260508180526 12 119 0.0 6.4 0.00 0.00 0.00 73 1020.3
20260508180041 12 119 0.0 6.4 0.00 0.00 0.00 73 1020.3
20260508175621 12 0.0 4.8 0.00 0.00 0.00 72 1020.2
20260508175136 12 74 0.0 6.4 0.00 0.00 0.00 71 1020.2
20260508174726 12 60 0.0 9.7 0.00 0.00 0.00 70 1020.2
20260508174256 12 72 0.0 9.7 0.00 0.00 0.00 70 1020.2
20260508173813 12 75 0.0 12.9 0.00 0.00 0.00 71 1020.1
20260508173356 13 77 0.0 6.4 0.00 0.00 0.00 71 1020.1
20260508172901 13 87 0.0 9.7 0.00 0.00 0.00 71 1020.2
20260508172443 13 72 0.0 6.4 0.00 0.00 0.00 71 1020.1
20260508172001 13 63 0.0 11.3 0.00 0.00 0.00 70 1020.0
20260508171541 13 63 0.0 11.3 0.00 0.00 0.00 70 1020.0
20260508171136 13 70 0.0 12.9 0.00 0.00 0.00 70 1019.9
20260508170651 13 53 0.0 14.5 0.00 0.00 0.00 70 1019.9
20260508170231 13 90 0.0 11.3 0.00 0.00 0.00 70 1020.0
20260508165801 13 90 0.0 11.3 0.00 0.00 0.00 68 1020.0
20260508165326 13 73 0.0 12.9 0.00 0.00 0.00 68 1020.0
20260508164916 13 13 0.0 11.3 0.00 0.00 0.00 68 1020.0
20260508164446 13 94 0.0 6.4 0.00 0.00 0.00 67 1019.9
20260508164021 13 94 0.0 6.4 0.00 0.00 0.00 67 1019.9
20260508163601 13 91 0.0 9.7 0.00 0.00 0.00 67 1020.0
20260508163131 13 91 0.0 9.7 0.00 0.00 0.00 67 1020.0
20260508162701 13 85 0.0 11.3 0.00 0.00 0.00 67 1020.0
20260508162226 13 69 0.0 11.3 0.00 0.00 0.00 66 1020.0
20260508161811 13 65 0.0 14.5 0.00 0.00 0.00 67 1020.0
20260508161356 13 80 0.0 14.5 0.00 0.00 0.00 66 1019.9
20260508160936 13 79 0.0 9.7 0.00 0.00 0.00 65 1020.0
20260508160521 14 86 0.0 11.3 0.00 0.00 0.00 65 1020.0
20260508160036 13 66 0.0 9.7 0.00 0.00 0.00 67 1020.0
20260508155615 13 66 0.0 9.7 0.00 0.00 0.00 67 1020.0
20260508155156 13 87 0.0 6.4 0.00 0.00 0.00 67 1020.0
20260508154726 13 88 0.0 11.3 0.00 0.00 0.00 67 1020.0
20260508154241 13 64 0.0 14.5 0.00 0.00 0.00 68 1020.1
20260508153821 13 86 0.0 6.4 0.00 0.00 0.00 70 1020.1
20260508153346 13 60 0.0 11.3 0.00 0.00 0.00 69 1020.2
20260508152916 13 135 0.0 11.3 0.00 0.00 0.00 70 1020.2
20260508152449 13 62 0.0 11.3 0.00 0.00 0.00 69 1020.3
20260508152021 13 62 0.0 11.3 0.00 0.00 0.00 69 1020.3
20260508151556 13 56 0.0 17.7 0.00 0.00 0.00 70 1020.3
20260508151121 13 56 0.0 17.7 0.00 0.00 0.00 70 1020.3
20260508150651 13 88 0.0 9.7 0.00 0.00 0.00 71 1020.4
20260508150226 12 78 0.0 9.7 0.00 0.00 0.00 71 1020.6
20260508145811 12 92 0.0 12.9 0.00 0.00 0.00 70 1020.5
20260508145333 12 85 0.0 9.7 0.00 0.00 0.00 71 1020.5
20260508144906 12 84 0.0 9.7 0.00 0.00 0.00 71 1020.5
20260508144436 12 94 0.0 6.4 0.00 0.00 0.00 71 1020.5
20260508144016 12 83 0.0 9.7 0.00 0.00 0.00 70 1020.5
20260508143541 12 83 0.0 9.7 0.00 0.00 0.00 70 1020.5
20260508143109 12 84 0.0 9.7 0.00 0.00 0.00 71 1020.5
20260508142654 12 84 0.0 9.7 0.00 0.00 0.00 71 1020.5
20260508142242 12 106 0.0 11.3 0.00 0.00 0.00 70 1020.6
20260508141826 12 71 0.0 9.7 0.00 0.00 0.00 71 1020.5
20260508141421 12 130 0.0 6.4 0.00 0.00 0.00 71 1020.5
20260508141001 12 118 0.0 9.7 0.00 0.00 0.00 71 1020.6
20260508140532 12 110 0.0 11.3 0.00 0.00 0.00 72 1020.5
20260508140106 12 110 0.0 11.3 0.00 0.00 0.00 72 1020.5
20260508135651 12 121 0.0 11.3 0.00 0.00 0.00 72 1020.5
20260508135242 12 108 0.0 12.9 0.00 0.00 0.00 71 1020.4
20260508134836 12 138 0.0 9.7 0.00 0.00 0.00 71 1020.6
20260508134426 12 88 0.0 12.9 0.00 0.00 0.00 70 1020.4
20260508133943 12 104 0.0 11.3 0.00 0.00 0.00 69 1020.4
20260508133531 13 98 0.0 12.9 0.00 0.00 0.00 68 1020.3
20260508133056 13 98 0.0 12.9 0.00 0.00 0.00 68 1020.3
20260508132611 13 83 0.0 6.4 0.00 0.00 0.00 66 1020.4
20260508132201 13 83 0.0 6.4 0.00 0.00 0.00 66 1020.4
20260508131731 13 98 0.0 9.7 0.00 0.00 0.00 66 1020.4
20260508131316 13 72 0.0 4.8 0.00 0.00 0.00 66 1020.5
20260508130916 13 73 0.0 9.7 0.00 0.00 0.00 67 1020.4
20260508130436 13 74 0.0 9.7 0.00 0.00 0.00 67 1020.5
20260508130001 13 57 0.0 4.8 0.00 0.00 0.00 68 1020.5
20260508125516 13 68 0.0 6.4 0.00 0.00 0.00 68 1020.6
20260508125041 13 97 0.0 9.7 0.00 0.00 0.00 69 1020.6
20260508124616 13 97 0.0 9.7 0.00 0.00 0.00 69 1020.6
20260508124201 12 102 0.0 6.4 0.00 0.00 0.00 68 1020.6
20260508123736 12 105 0.0 6.4 0.00 0.00 0.00 68 1020.7
20260508123321 12 77 0.0 6.4 0.00 0.00 0.00 69 1020.7
20260508122906 12 79 0.0 11.3 0.00 0.00 0.00 68 1020.7
20260508122441 12 82 0.0 6.4 0.00 0.00 0.00 70 1020.6
20260508122021 12 107 0.0 11.3 0.00 0.00 0.00 69 1020.6
20260508121601 12 107 0.0 11.3 0.00 0.00 0.00 69 1020.6
20260508121110 12 79 0.0 11.3 0.00 0.00 0.00 71 1020.7
20260508120631 12 148 0.0 9.7 0.00 0.00 0.00 71 1020.8
20260508120141 12 79 0.0 9.7 0.00 0.00 0.00 71 1020.7
20260508115701 12 78 0.0 9.7 0.00 0.00 0.00 71 1020.7
20260508115231 12 81 0.0 6.4 0.00 0.00 0.00 72 1020.6
20260508114801 12 103 0.0 6.4 0.00 0.00 0.00 70 1020.7
20260508114401 12 80 0.0 9.7 0.00 0.00 0.00 68 1020.5
20260508113951 13 121 0.0 11.3 0.00 0.00 0.00 68 1020.5
20260508113511 13 82 0.0 6.4 0.00 0.00 0.00 68 1020.5
20260508113041 13 59 0.0 11.3 0.00 0.00 0.00 66 1020.6
20260508112626 13 59 0.0 11.3 0.00 0.00 0.00 66 1020.6
20260508112151 13 123 0.0 6.4 0.00 0.00 0.00 68 1020.7
20260508111721 13 130 0.0 6.4 0.00 0.00 0.00 71 1020.6
20260508111301 12 115 0.0 11.3 0.00 0.00 0.00 72 1020.7
20260508110830 12 127 0.0 9.7 0.00 0.00 0.00 72 1020.7
20260508110351 12 149 0.0 11.3 0.00 0.00 0.00 72 1020.6
20260508105946 12 135 0.0 9.7 0.00 0.00 0.00 72 1020.7
20260508105451 12 91 0.0 9.7 0.00 0.00 0.00 73 1020.8
20260508105021 12 119 0.0 11.3 0.00 0.00 0.00 74 1020.8
20260508104611 12 82 0.0 9.7 0.00 0.00 0.00 74 1020.7
20260508104131 12 82 0.0 9.7 0.00 0.00 0.00 74 1020.7
20260508103701 12 101 0.0 9.7 0.00 0.00 0.00 76 1020.7
20260508103221 12 147 0.0 4.8 0.00 0.00 0.00 77 1020.7
20260508102746 12 24 0.0 1.6 0.00 0.00 0.00 77 1020.7
20260508102316 11 87 0.0 4.8 0.00 0.00 0.00 77 1020.8
20260508101856 11 0.0 0.0 0.00 0.00 0.00 78 1020.8
20260508101416 11 0.0 0.0 0.00 0.00 0.00 78 1020.8
20260508100946 11 0.0 0.0 0.00 0.00 0.00 78 1020.8
20260508100516 11 0.0 0.0 0.00 0.00 0.00 79 1020.8
20260508095626 11 0.0 0.0 0.00 0.00 0.00 79 1020.7
20260508095216 11 0.0 0.0 0.00 0.00 0.00 79 1020.7
20260508094746 11 0.0 1.6 0.00 0.00 0.00 79 1020.8
20260508094303 11 0.0 0.0 0.00 0.00 0.00 79 1020.8
20260508093831 11 0.0 0.0 0.00 0.00 0.00 79 1020.7
20260508093401 11 78 0.0 3.2 0.00 0.00 0.00 79 1020.8
20260508093001 11 0.0 0.0 0.00 0.00 0.00 79 1020.8
20260508092516 11 72 0.0 3.2 0.00 0.00 0.00 79 1020.9
20260508092042 11 69 0.0 3.2 0.00 0.00 0.00 79 1020.8
20260508091606 11 69 0.0 3.2 0.00 0.00 0.00 79 1020.8
20260508091113 11 90 0.0 3.2 0.00 0.00 0.00 79 1020.8
20260508090636 11 90 0.0 3.2 0.00 0.00 0.00 79 1020.8
20260508090201 11 0.0 0.0 0.00 0.00 0.00 80 1020.7
20260508085731 11 0.0 0.0 0.00 0.00 0.00 80 1020.7
20260508085307 11 87 0.0 3.2 0.00 0.00 0.00 79 1020.8
20260508084816 11 99 0.0 4.8 0.00 0.00 0.00 78 1020.8
20260508084356 11 100 0.0 3.2 0.00 0.00 0.00 79 1020.9
20260508083906 11 91 0.0 4.8 0.00 0.00 0.00 78 1020.8
20260508083416 11 119 0.0 3.2 0.00 0.00 0.00 78 1020.9
20260508082956 11 108 0.0 3.2 0.00 0.00 0.00 78 1020.8
20260508082526 11 108 0.0 3.2 0.00 0.00 0.00 78 1020.8
20260508082056 11 126 0.0 1.6 0.00 0.00 0.00 77 1020.7
20260508081623 11 126 0.0 1.6 0.00 0.00 0.00 77 1020.7
20260508081216 12 0.0 0.0 0.00 0.00 0.00 77 1020.7
20260508080801 12 0.0 0.0 0.00 0.00 0.00 75 1020.8
20260508080316 12 46 0.0 3.2 0.00 0.00 0.00 75 1020.6
20260508075856 13 71 0.0 4.8 0.00 0.00 0.00 73 1020.7
20260508075436 13 54 0.0 4.8 0.00 0.00 0.00 72 1020.5
20260508074951 13 93 0.0 3.2 0.00 0.00 0.00 74 1020.5
20260508074451 12 139 0.0 6.4 0.00 0.00 0.00 76 1020.6
20260508074016 12 76 0.0 4.8 0.00 0.00 0.00 78 1020.7
20260508073535 12 76 0.0 4.8 0.00 0.00 0.00 78 1020.7
20260508073131 12 80 0.0 4.8 0.00 0.00 0.00 77 1020.6
20260508072641 12 91 0.0 6.4 0.00 0.00 0.00 78 1020.6
20260508072216 11 97 0.0 1.6 0.00 0.00 0.00 80 1020.6
20260508071741 11 38 0.0 6.4 0.00 0.00 0.00 79 1020.6
20260508071311 11 79 0.0 6.4 0.00 0.00 0.00 81 1020.5
20260508070901 11 73 0.0 9.7 0.00 0.00 0.00 84 1020.6
20260508070441 11 79 0.0 6.4 0.00 0.00 0.00 86 1020.5
20260508070036 11 6 0.0 4.8 0.00 0.00 0.00 86 1020.5
20260508065556 11 6 0.0 4.8 0.00 0.00 0.00 86 1020.5
20260508065131 10 51 0.0 6.4 0.00 0.00 0.00 86 1020.3
20260508064701 10 72 0.0 4.8 0.00 0.00 0.00 88 1020.4
20260508064241 10 67 0.0 11.3 0.00 0.00 0.00 89 1020.4
20260508063751 10 16 0.0 4.8 0.00 0.00 0.00 90 1020.4
20260508063333 9 91 0.0 6.4 0.00 0.00 0.00 90 1020.4
20260508062906 9 57 0.0 4.8 0.00 0.00 0.00 91 1020.4
20260508062441 9 68 0.0 6.4 0.00 0.00 0.00 91 1020.4
20260508062011 9 66 0.0 4.8 0.00 0.00 0.00 92 1020.2
20260508061605 9 66 0.0 4.8 0.00 0.00 0.00 92 1020.2
20260508061146 8 54 0.0 9.7 0.00 0.00 0.00 92 1020.2
20260508060706 8 76 0.0 6.4 0.00 0.00 0.00 93 1020.2
20260508060243 8 0.0 3.2 0.00 0.00 0.00 93 1020.2
20260508055811 7 75 0.0 4.8 0.00 0.00 0.00 93 1020.3
20260508055331 7 83 0.0 3.2 0.00 0.00 0.00 93 1020.3
20260508054901 7 0.0 0.0 0.00 0.00 0.00 93 1020.3
20260508054426 7 0.0 0.0 0.00 0.00 0.00 93 1020.3
20260508054006 7 0.0 0.0 0.00 0.00 0.00 93 1020.3
20260508053541 7 0.0 0.0 0.00 0.00 0.00 93 1020.3
20260508053106 7 0.0 0.0 0.00 0.00 0.00 93 1020.3
20260508052650 7 0.0 0.0 0.00 0.00 0.00 93 1020.3
20260508052206 7 0.0 0.0 0.00 0.00 0.00 93 1020.2
20260508051746 7 0.0 0.0 0.00 0.00 0.00 93 1020.2
20260508051246 7 0.0 0.0 0.00 0.00 0.00 93 1020.1
20260508050801 7 0.0 0.0 0.00 0.00 0.00 93 1020.1
20260508050336 7 0.0 0.0 0.00 0.00 0.00 92 1020.1
20260508045836 7 0.0 0.0 0.00 0.00 0.00 92 1020.0
20260508045408 7 0.0 0.0 0.00 0.00 0.00 92 1019.9
20260508044936 7 0.0 0.0 0.00 0.00 0.00 92 1020.0
20260508044456 7 0.0 0.0 0.00 0.00 0.00 92 1020.0
20260508044043 7 0.0 0.0 0.00 0.00 0.00 92 1020.0
20260508043616 7 0.0 0.0 0.00 0.00 0.00 92 1020.0
20260508043201 7 0.0 0.0 0.00 0.00 0.00 93 1020.0
20260508042726 7 0.0 0.0 0.00 0.00 0.00 93 1019.9
20260508042306 7 0.0 0.0 0.00 0.00 0.00 93 1019.9
20260508041830 7 0.0 0.0 0.00 0.00 0.00 93 1019.9
20260508041356 7 0.0 0.0 0.00 0.00 0.00 93 1019.9
20260508040926 7 0.0 0.0 0.00 0.00 0.00 93 1019.9
20260508040521 7 0.0 0.0 0.00 0.00 0.00 93 1019.8
20260508040046 7 0.0 0.0 0.00 0.00 0.00 93 1019.8
20260508035631 7 0.0 0.0 0.00 0.00 0.00 93 1019.8
20260508035216 7 0.0 0.0 0.00 0.00 0.00 93 1019.9
20260508034756 7 0.0 0.0 0.00 0.00 0.00 93 1019.8
20260508034310 7 0.0 0.0 0.00 0.00 0.00 93 1019.8
20260508033836 7 0.0 0.0 0.00 0.00 0.00 93 1019.8
20260508033356 7 0.0 0.0 0.00 0.00 0.00 93 1019.8
20260508032951 7 0.0 0.0 0.00 0.00 0.00 93 1019.8
20260508032516 7 0.0 0.0 0.00 0.00 0.00 93 1019.8
20260508032036 7 0.0 0.0 0.00 0.00 0.00 93 1019.8
20260508031606 7 0.0 0.0 0.00 0.00 0.00 93 1019.9
20260508031146 7 0.0 0.0 0.00 0.00 0.00 93 1019.7
20260508030717 7 0.0 0.0 0.00 0.00 0.00 93 1019.8
20260508030236 7 0.0 0.0 0.00 0.00 0.00 93 1019.8
20260508025801 7 0.0 0.0 0.00 0.00 0.00 93 1019.8
20260508025306 7 0.0 0.0 0.00 0.00 0.00 93 1019.7
20260508024836 7 0.0 0.0 0.00 0.00 0.00 93 1019.7
20260508024407 7 93 0.0 3.2 0.00 0.00 0.00 93 1019.8
20260508024001 7 83 0.0 3.2 0.00 0.00 0.00 93 1019.8
20260508023536 7 83 0.0 3.2 0.00 0.00 0.00 93 1019.8
20260508023106 7 73 0.0 3.2 0.00 0.00 0.00 93 1019.8
20260508022631 7 73 0.0 3.2 0.00 0.00 0.00 93 1019.8
20260508022146 7 0.0 4.8 0.00 0.00 0.00 93 1019.8
20260508021721 7 91 0.0 6.4 0.00 0.00 0.00 93 1019.9
20260508021246 7 75 0.0 3.2 0.00 0.00 0.00 93 1019.9
20260508020826 7 79 0.0 4.8 0.00 0.00 0.00 93 1019.8
20260508020401 7 86 0.0 3.2 0.00 0.00 0.00 93 1019.8
20260508015946 7 76 0.0 1.6 0.00 0.00 0.00 93 1019.9
20260508015521 7 61 0.0 3.2 0.00 0.00 0.00 93 1019.8
20260508015051 7 61 0.0 3.2 0.00 0.00 0.00 93 1019.8
20260508014601 7 76 0.0 3.2 0.00 0.00 0.00 93 1019.9
20260508014141 7 0.0 1.6 0.00 0.00 0.00 93 1020.0
20260508013706 7 0.0 0.0 0.00 0.00 0.00 93 1019.9
20260508013236 7 0.0 0.0 0.00 0.00 0.00 93 1020.0
20260508012801 7 0.0 0.0 0.00 0.00 0.00 93 1019.9
20260508012326 7 0.0 0.0 0.00 0.00 0.00 93 1019.9
20260508011906 7 0.0 0.0 0.00 0.00 0.00 93 1019.9
20260508011446 7 0.0 0.0 0.00 0.00 0.00 93 1019.8
20260508011001 7 0.0 0.0 0.00 0.00 0.00 93 1019.8
20260508010506 7 0.0 0.0 0.00 0.00 0.00 93 1019.9
20260508010051 7 0.0 0.0 0.00 0.00 0.00 93 1019.9
20260508005616 7 0.0 0.0 0.00 0.00 0.00 93 1019.8
20260508005146 7 0.0 0.0 0.00 0.00 0.00 93 1019.8
20260508004716 7 0.0 0.0 0.00 0.00 0.00 93 1019.8
20260508004231 7 0.0 0.0 0.00 0.00 0.00 93 1019.8
20260508003746 7 0.0 0.0 0.00 0.00 0.00 93 1019.7
20260508003259 7 0.0 0.0 0.00 0.00 0.00 93 1019.8
20260508002841 7 0.0 0.0 0.00 0.00 0.00 93 1019.7
20260508002421 7 0.0 0.0 0.00 0.00 0.00 93 1019.7
20260508001945 7 0.0 0.0 0.00 0.00 0.00 93 1019.8
20260508001049 6 0.0 0.0 0.00 0.00 0.00 93 1019.8
20260508000621 6 0.0 0.0 0.00 0.00 0.00 93 1019.9
20260508000213 6 0.0 0.0 0.00 0.00 0.00 93 1019.8
20260507235746 6 0.0 0.0 0.00 0.00 0.00 93 1019.8
20260507235326 6 0.0 0.0 0.00 0.00 0.00 93 1019.9
20260507234856 6 0.0 0.0 0.00 0.00 0.00 93 1020.0
20260507234426 6 0.0 0.0 0.00 0.00 0.00 93 1020.0
20260507233938 6 0.0 0.0 0.00 0.00 0.00 93 1020.1
20260507233519 6 0.0 0.0 0.00 0.00 0.00 93 1020.1
20260507233101 6 0.0 0.0 0.00 0.00 0.00 93 1020.1
20260507232636 6 0.0 0.0 0.00 0.00 0.00 92 1020.1
20260507232146 6 0.0 0.0 0.00 0.00 0.00 92 1020.1
20260507231716 6 96 0.0 3.2 0.00 0.00 0.00 92 1020.1
20260507231301 5 0.0 0.0 0.00 0.00 0.00 92 1020.1
20260507230836 5 0.0 0.0 0.00 0.00 0.00 92 1020.1
20260507230356 5 0.0 0.0 0.00 0.00 0.00 92 1020.1
20260507225936 6 0.0 0.0 0.00 0.00 0.00 91 1020.1
20260507225516 6 0.0 0.0 0.00 0.00 0.00 91 1020.2
20260507225041 6 0.0 0.0 0.00 0.00 0.00 91 1020.2
20260507224606 6 0.0 0.0 0.00 0.00 0.00 91 1020.0
20260507224141 6 0.0 0.0 0.00 0.00 0.00 91 1020.0
20260507223651 6 0.0 0.0 0.00 0.00 0.00 91 1020.1
20260507223232 6 0.0 0.0 0.00 0.00 0.00 91 1020.0
20260507222802 6 0.0 0.0 0.00 0.00 0.00 91 1020.0
20260507222317 7 0.0 0.0 0.00 0.00 0.00 91 1019.9
20260507221905 7 0.0 0.0 0.00 0.00 0.00 91 1019.9
20260507221431 7 0.0 0.0 0.00 0.00 0.00 92 1019.8
20260507221001 7 0.0 0.0 0.00 0.00 0.00 92 1019.8
20260507220531 7 74 0.0 1.6 0.00 0.00 0.00 92 1019.8
20260507220106 7 74 0.0 1.6 0.00 0.00 0.00 92 1019.8
20260507215626 7 72 0.0 3.2 0.00 0.00 0.00 92 1019.8
20260507215146 7 96 0.0 6.4 0.00 0.00 0.00 92 1019.7
20260507214736 7 87 0.0 4.8 0.00 0.00 0.00 92 1019.8
20260507214249 7 75 0.0 3.2 0.00 0.00 0.00 92 1019.8
20260507213821 7 0.0 0.0 0.00 0.00 0.00 92 1019.7
20260507213401 7 0.0 1.6 0.00 0.00 0.00 92 1019.7
20260507212946 7 76 0.0 1.6 0.00 0.00 0.00 92 1019.6
20260507212511 7 72 0.0 1.6 0.00 0.00 0.00 92 1019.7
20260507212036 7 77 0.0 4.8 0.00 0.00 0.00 92 1019.7
20260507211551 7 77 0.0 4.8 0.00 0.00 0.00 92 1019.7
20260507211106 7 0.0 0.0 0.00 0.00 0.00 92 1019.7
20260507210628 7 0.0 0.0 0.00 0.00 0.00 92 1019.7
20260507210206 7 0.0 0.0 0.00 0.00 0.00 91 1019.7
20260507205746 6 0.0 0.0 0.00 0.00 0.00 91 1019.7
20260507205251 6 0.0 0.0 0.00 0.00 0.00 91 1019.8
20260507204806 6 0.0 0.0 0.00 0.00 0.00 91 1019.8
20260507204336 6 0.0 0.0 0.00 0.00 0.00 91 1019.6
20260507203916 6 0.0 0.0 0.00 0.00 0.00 91 1019.6
20260507203446 6 0.0 0.0 0.00 0.00 0.00 90 1019.6
20260507203010 6 0.0 0.0 0.00 0.00 0.00 90 1019.6
20260507202556 6 0.0 0.0 0.00 0.00 0.00 90 1019.6
20260507202111 7 0.0 0.0 0.00 0.00 0.00 90 1019.6
20260507201649 7 0.0 0.0 0.00 0.00 0.00 90 1019.6
20260507201221 7 0.0 0.0 0.00 0.00 0.00 90 1019.5
20260507200816 7 0.0 0.0 0.00 0.00 0.00 90 1019.6
20260507200331 7 0.0 0.0 0.00 0.00 0.00 90 1019.6
20260507195856 7 0.0 0.0 0.00 0.00 0.00 90 1019.5
20260507195426 7 0.0 0.0 0.00 0.00 0.00 90 1019.4
20260507194956 7 0.0 0.0 0.00 0.00 0.00 90 1019.4
20260507194521 7 0.0 0.0 0.00 0.00 0.00 90 1019.3
20260507194049 7 0.0 0.0 0.00 0.00 0.00 90 1019.3
20260507193621 8 0.0 0.0 0.00 0.00 0.00 90 1019.3
20260507193156 8 0.0 0.0 0.00 0.00 0.00 90 1019.2
20260507192706 8 0.0 0.0 0.00 0.00 0.00 90 1019.2
20260507192236 8 0.0 0.0 0.00 0.00 0.00 90 1019.2
20260507191806 8 0.0 0.0 0.00 0.00 0.00 90 1019.1
20260507191329 8 0.0 0.0 0.00 0.00 0.00 90 1019.1
20260507190846 8 0.0 0.0 0.00 0.00 0.00 90 1019.1
20260507190426 8 0.0 0.0 0.00 0.00 0.00 90 1019.1
20260507190009 8 0.0 0.0 0.00 0.00 0.00 90 1018.9
20260507185554 8 0.0 0.0 0.00 0.00 0.00 90 1018.9
20260507185136 8 0.0 0.0 0.00 0.00 0.00 90 1018.9